www.pogodaiklimat.ru

Погода и климат >> Архив погоды >> Алжир >> Оран аэропорт


ПОГОДА в Оран аэропорту

  • Прогноз погоды в Оран аэропорту
  • Монитор погоды в Оран аэропорту

АРХИВ ПОГОДЫ в Оран аэропорту

Время (UTC), дата Ветер
(напр.,м/с)
 
Видим.   Явления Облачность Т
(С)
Тd
(С)
f
(%)
Тe
(С)
Тes
(С)
Комфортность P
(гПа)
Po
(гПа)
Тmin
(С)
Tmax
(С)
R
(мм)
R24
(мм)
S
(см)
03 16.08 Ю 2 15 км ясно +20.3 +13.6 65 +23 +23 комфорт 1015.9 1005.2
06 16.08 ЮЗ 2 15 км ясно +20.5 +15.7 74 +24 +25 комфорт 1016.4 1005.7 +20.4
09 16.08 Ю 2 15 км ясно +27.7 +19.8 62 +34 +45 очень
душно
1016.4 1005.9
12 16.08 С 6 15 км ясно +30.0 +19.9 55 +36 +43 очень
душно
1015.5 1005.1
15 16.08 С 8 15 км ясно +29.4 +20.6 59 +36 +38 очень
душно
1014.5 1004.1
18 16.08 СЗ 5 15 км ясно +26.6 +21.3 73 +34 +34 очень
душно
1014.3 1003.8 +31.2
21 16.08 СВ 2 15 км 1/1 800 м
[Sc]
+25.1 +21.1 78 +32 +32 очень
душно
1015.1 1004.6
00 17.08 штиль 0 15 км 1/1 800 м
[Sc]
+23.4 +21.0 86 +31 +31 очень
душно
1015.1 1004.5
03 17.08 ЮВ 1 15 км 1/1 800 м
[Sc]
+21.6 +17.8 79 +26 +26 душно 1014.9 1004.2
06 17.08 ЮЗ 2 15 км 3/3 800 м
[Sc]
+21.2 +18.5 85 +26 +26 душно 1015.3 1004.6 +21.0
09 17.08 С 2 15 км ясно +27.0 +20.4 67 +33 +44 очень
душно
1015.4 1004.9
12 17.08 С 7 15 км ясно +30.6 +22.2 61 +40 +45 очень
душно
1013.4 1003.1
15 17.08 С 8 15 км ясно +30.3 +21.3 59 +38 +40 очень
душно
1011.6 1001.3
18 17.08 С 6 15 км ясно +27.5 +23.0 76 +37 +37 очень
душно
1011.1 1000.7 +30.7
21 17.08 С 2 8000 м 1/1 300 м
[St]
+25.0 +23.1 89 +33 +33 очень
душно
1012.1 1001.6
00 18.08 СЗ 2 8000 м 1/1 300 м
[St]
+23.9 +21.5 86 +30 +30 очень
душно
1011.4 1000.9
03 18.08 штиль 0 8000 м 3/3 300 м
[St]
+22.4 +19.9 86 +29 +29 очень
душно
1011.3 1000.7
06 18.08 Ю 2 8000 м 6/6 300 м
[St]
+23.9 +21.9 89 +31 +31 очень
душно
1011.7 1001.2 +22.1
09 18.08 ЮЗ 4 12 км ясно +28.2 +20.8 64 +35 +43 очень
душно
1012.7 1002.3
12 18.08 С 6 12 км ясно +29.8 +22.2 64 +39 +46 очень
душно
1012.5 1002.2
15 18.08 С 7 12 км 5/5 800 м
[Sc]
+29.6 +22.6 66 +39 +40 очень
душно
1011.5 1001.2
18 18.08 С 4 10 км 1/1 800 м
[Sc]
+27.4 +22.9 76 +36 +37 очень
душно
1011.4 1001.0 +30.5
21 18.08 ЮЗ 4 10 км ясно +25.2 +21.3 79 +32 +32 очень
душно
1013.3 1002.8
00 19.08 ЮЗ 3 10 км ясно +23.6 +20.9 85 +30 +30 очень
душно
1013.7 1003.1
03 19.08 ЮЗ 2 10 км ясно +21.7 +18.9 84 +27 +27 душно 1012.9 1002.3
06 19.08 Ю 1 15 км ясно +21.1 +16.4 75 +25 +25 комфорт 1013.4 1002.7 +19.6
09 19.08 Ю 4 15 км ясно +31.2 +14.8 37 +33 +41 жарко 1013.9 1003.6
12 19.08 С 6 15 км ясно +33.9 +16.9 36 +37 +45 очень
душно
1013.6 1003.4
15 19.08 СЗ 6 15 км ясно +33.9 +13.4 29 +35 +39 очень
жарко
1014.2 1004.0
18 19.08 С 5 15 км ясно +31.1 +12.6 32 +32 +32 жарко 1011.8 1001.5 +35.0
21 19.08 С 2 15 км ясно +26.9 +14.4 46 +29 +29 жарко 1013.3 1002.9
00 20.08 штиль 0 15 км ясно +23.3 +18.1 73 +29 +29 душно 1013.6 1003.0
03 20.08 штиль 0 15 км ясно +21.5 +17.5 78 +26 +26 душно 1013.4 1002.8
06 20.08 ЮЗ 3 15 км ясно +20.0 +16.0 78 +23 +23 комфорт 1014.1 1003.4 +19.8
09 20.08 ЮЗ 4 15 км ясно +28.2 +19.9 61 +34 +41 очень
душно
1014.5 1004.1
12 20.08 С 5 20 км ясно +29.2 +21.9 65 +38 +47 очень
душно
1015.1 1004.7
15 20.08 С 8 20 км 1/1 700 м
[Cu med, cong]
+28.8 +21.3 64 +36 +38 очень
душно
1013.8 1003.4
18 20.08 С 8 20 км 1/1 700 м
[Cu med, cong]
+26.3 +20.9 72 +33 +33 очень
душно
1013.9 1003.4 +30.7
21 20.08 СВ 4 20 км 3/3 700 м
[Cu med, cong]
+25.1 +21.5 80 +32 +32 очень
душно
1015.8 1005.3
00 21.08 С 2 20 км 4/4 800 м
[Sc]
+24.1 +21.0 83 +30 +30 очень
душно
1015.6 1005.0
03 21.08 Ю 2 20 км 5/5 800 м
[Sc]
+24.3 +21.1 82 +31 +31 очень
душно
1015.2 1004.6
06 21.08 ЮВ 2 8000 м 8/8 800 м
[Sc]
+23.9 +20.8 83 +30 +30 очень
душно
1015.3 1004.7 +23.2
09 21.08 СВ 3 12 км 5/5 600 м
[Sc]
+28.2 +21.2 66 +36 +40 очень
душно
1015.4 1005.0
12 21.08 С 7 12 км 3/3 600 м
[Sc]
+30.4 +20.6 56 +37 +41 очень
душно
1014.0 1003.7
15 21.08 С 6 12 км 5/5 600 м
[Sc]
+30.3 +21.7 60 +39 +41 очень
душно
1013.5 1003.2
18 21.08 С 4 12 км 5/5 600 м
[Sc]
+27.3 +21.9 72 +35 +35 очень
душно
1014.3 1003.9 +31.6
21 21.08 С 4 12 км 6/6 600 м
[Sc]
+25.3 +22.0 82 +33 +33 очень
душно
1016.8 1006.3
00 22.08 С 4 12 км 6/6 600 м
[Sc]
+24.6 +22.2 87 +32 +32 очень
душно
1017.0 1006.4
03 22.08 С 5 12 км 8/8 400 м
[St]
+24.3 +21.9 86 +31 +31 очень
душно
1015.7 1005.1
06 22.08 С 5 12 км 9/9 400 м
[St]
+24.7 +21.1 80 +31 +31 очень
душно
1016.6 1006.0 +24.3
09 22.08 С 6 12 км 6/6 600 м
[Cu Sc]
+27.1 +20.5 67 +34 +35 очень
душно
1017.4 1006.9
12 22.08 С 5 12 км 4/4 800 м
[Sc]
+30.0 +19.9 55 +36 +42 очень
душно
1016.5 1006.1
15 22.08 СВ 8 12 км 1/1 800 м
[Sc]
+29.8 +18.8 52 +35 +37 очень
душно
1015.8 1005.4
18 22.08 СВ 8 12 км 1/1 800 м
[Sc]
+26.6 +16.4 54 +30 +30 душно 1015.4 1004.9 +31.3
21 22.08 С 4 12 км 1/1 800 м
[Sc]
+24.2 +19.1 73 +29 +29 душно 1016.9 1006.3
00 23.08 СВ 5 12 км 3/3 800 м
[Sc]
+23.0 +19.9 83 +30 +30 очень
душно
1016.6 1006.0

 

Местоположение метеостанции Оран аэропорт (Алжир): широта 35.63 долгота -0.60 высота над уровнем моря 91 м.

В архиве по умолчанию представлена погода в Оран аэропорту за последнюю неделю. Архивные данные за месяц целиком и за предыдущие месяцы, начиная с января 2011 года, Вы можете получить, выбрав интересующий диапазон дат из раскрывающегося списка и нажав кнопку "Ввод!".


*Определитесь, кто Вы:
робот инопланетянин человек

Внимание! Время в таблицах - всемирное. Для получения местного времени необходимо прибавить поправку, которая равна 1 ч.

Смотрите также архив погоды в соседних городах и на ближайших метеорологических станциях:

Погода в Оране (Алжир) (9 км)
Погода в Оран-Тафрауи (Алжир) (18 км)
Погода в Арзеве (Алжир) (37 км)
Погода в Сиди-Бель-Аббесе (Алжир) (48 км)
Погода в Мостаганеме (Алжир) (71 км)
Погода в Бени-Сафе (Алжир) (77 км)
Погода в Грисе (Алжир) (82 км)
Погода в Аэропорту Messali El Hadj (Алжир) (104 км)
Погода в Релизане (Алжир) (104 км)
Погода в Саиде (Алжир) (109 км)

Пояснения к столбцам:

Ветер - указаны скорость ветра в м/с - средняя за 10 мин, порывы в срок и между сроками (в фигурных скобках) и направление, откуда дует ветер: С - северный, СВ - северо-восточный, В - восточный, ЮВ - юго-восточный, Ю - южный, ЮЗ - юго-западный, З - западный, СЗ - северо-западный.
Видимость - горизонтальная дальность видимости в метрах или километрах. При видимости от 1 до 10 км при отсутствии осадков обычно наблюдается дымка, при ухудшении видимости до 1 км и менее - туман. В сухую погоду видимость может ухудшаться дымом, пылью или мглою.
Явления - указаны атмосферные явления, наблюдавшиеся в срок или в последний час перед сроком; фигурными скобками обозначены явления, наблюдавшиеся между сроками (за 1-3 часа до срока); квадратными скобками обозначены град или гололедные отложения с указанием их диаметра в мм.
Облачность - указаны через наклонную черту общая и нижняя облачность в баллах и высота нижней границы облаков в метрах; квадратными скобками обозначены формы облаков: Ci - перистые, Cs - перисто-слоистые, Cc - перисто-кучевые, Ac - высококучевые, As - высокослоистые, Sc - слоисто-кучевые, Ns - слоисто-дождевые, Cu - кучевые, Cb - кучево-дождевые. Подробнее классификацию облаков см. в Атласе облаков (PDF).
T - Температура воздуха - температура, измеренная на высоте 2 м над землей.
Td - Температура точки росы - температура, при понижении до которой содержащийся в воздухе водяной пар достигнет насыщения.
f - Относительная влажность воздуха - влажноcть воздуха, измеренная на высоте 2 м над землей.
Te - Эффективная температура - температура, которую ощущает одетый по сезону человек в тени. Характеристика душности погоды. При расчете учитывается влияние влажности воздуха и скорости ветра на теплоощущения человека.
Tes - Эффективная температура на солнце - температура, которую ощущает человек, с поправкой на солнечный нагрев. Характеристика знойности погоды. Зависит от высоты солнца над горизонтом, облачности и скорости ветра. Ночью, в пасмурную погоду, а также при ветре 12 м/с и более поправка равна нулю.
P - Атмосферное давление - приведенное к уровню моря атмосферное давление.
Po - Атмосферное давление - измеренное на уровне метеостанции атмосферное давление.
Tmin - Минимальная температура - минимум температуры воздуха на высоте 2 м над землей.
Tmax - Максимальная температура - максимум температуры воздуха на высоте 2 м над землей.
R - Количество осадков - Количество выпавших осадков за период времени, мм. При наведении курсора мыши на число - период времени, за который выпало указанное количество осадков.
R24 - Количество осадков - Количество выпавших осадков за 24 часа, мм.
S - Снежный покров - Высота снежного покрова, см. При наведении курсора мыши на число - состояние снежного покрова и степень покрытия местности в баллах.